Weather History for Hebron, NE

Change the Weather History Date:

Sunday, December 2, 2012

  Actual Average Record
Temperature  
Mean Temperature 52 °F -  
Max Temperature 71 °F 41 °F 71 °F (2012)
Min Temperature 32 °F 22 °F -3 °F (1985)
Degree Days  
Heating Degree Days 14    
Growing Degree Days 2 (Base 50)    
Moisture  
Dew Point 39 °F    
Average Humidity 77    
Maximum Humidity 100    
Minimum Humidity 31    
Precipitation  
Precipitation 0.00 in - - ()
Sea Level Pressure  
Sea Level Pressure 29.90 in    
Wind  
Wind Speed 3 mph (SSE)    
Max Wind Speed 16 mph    
Max Gust Speed 22 mph    
Visibility 8 miles    
Events      
Averages and records for this station are not official NWS values.
T = Trace of Precipitation, MM = Missing Value Source: NWS Daily Summary

Daily Weather History Graph

Daily Weather History Graph

Search for Another Location

Airport:

Trip Planner

Search our weather history database for the weather conditions in past years. The results will help you decide how hot, cold, wet, or windy it might be!

Date:

Astronomy

Dec. 02, 2012 Rise Set
Actual Time 7:34 AM CST 5:04 PM CST
Civil Twilight 7:04 AM CST 5:35 PM CST
Nautical Twilight 6:31 AM CST 6:08 PM CST
Astronomical Twilight 5:58 AM CST 6:41 PM CST
Moon 8:53 PM CST (12/2) 10:25 AM CST (12/2)
Length of Visible Light 10h 30m
Length of Day
9h 30m
Waning Gibbous, 85% of the Moon is Illuminated
Dec 2
Waning Gibbous
Dec 6
Last Quarter
Dec 13
New
Dec 19
First Quarter
Dec 28
Full

Hourly Weather History & Observations

Time (CST) Temp. Windchill Dew Point Humidity Pressure Visibility Wind Dir Wind Speed Gust Speed Precip Events Conditions
12:15 AM 37.9 °F - 37.4 °F 98% 29.92 in 2.5 mi Calm Calm - N/A   Clear
12:35 AM 39.2 °F 35.9 °F 38.8 °F 99% 29.92 in 4.0 mi West 4.6 mph - N/A   Clear
12:55 AM 37.8 °F - 37.2 °F 98% 29.93 in 4.0 mi Calm Calm - N/A   Clear
1:15 AM 36.5 °F 33.9 °F 36.1 °F 99% 29.92 in 2.5 mi West 3.5 mph - N/A   Clear
1:35 AM 39.2 °F - 38.8 °F 99% 29.92 in 5.0 mi Calm Calm - N/A   Clear
1:55 AM 38.3 °F - 37.8 °F 98% 29.92 in 5.0 mi Calm Calm - N/A   Clear
2:15 AM 39.2 °F - 38.5 °F 97% 29.93 in 7.0 mi Calm Calm - N/A   Clear
2:35 AM 37.6 °F - 37.0 °F 98% 29.94 in 5.0 mi Calm Calm - N/A   Clear
2:55 AM 37.6 °F - 36.9 °F 97% 29.93 in 7.0 mi Calm Calm - N/A   Clear
3:15 AM 35.6 °F - 34.9 °F 97% 29.94 in 4.0 mi Calm Calm - N/A   Clear
3:35 AM 36.0 °F - 35.2 °F 97% 29.95 in 5.0 mi Calm Calm - N/A   Clear
3:55 AM 36.7 °F 34.1 °F 36.0 °F 97% 29.94 in 5.0 mi West 3.5 mph - N/A   Clear
4:15 AM 34.0 °F 31.0 °F 33.4 °F 98% 29.94 in 4.0 mi WSW 3.5 mph - N/A   Clear
4:35 AM 35.4 °F - 34.9 °F 98% 29.96 in 5.0 mi Calm Calm - N/A   Clear
4:55 AM 33.8 °F 30.8 °F 33.1 °F 97% 29.96 in 5.0 mi WSW 3.5 mph - N/A   Clear
5:15 AM 34.0 °F - 33.6 °F 99% 29.97 in 5.0 mi Calm Calm - N/A   Clear
5:35 AM 34.0 °F - 33.4 °F 98% 29.97 in 5.0 mi Calm Calm - N/A   Clear
5:55 AM 33.8 °F - 33.4 °F 99% 29.97 in 4.0 mi Calm Calm - N/A   Clear
6:15 AM 33.3 °F - 32.9 °F 99% 29.97 in 5.0 mi Calm Calm - N/A   Clear
6:35 AM 34.5 °F - 34.2 °F 99% 29.99 in 5.0 mi Calm Calm - N/A   Clear
6:55 AM 34.3 °F 30.2 °F 34.0 °F 99% 29.99 in 7.0 mi West 4.6 mph - N/A   Clear
7:15 AM 34.9 °F - 34.0 °F 97% 30.00 in 7.0 mi Calm Calm - N/A   Clear
7:35 AM 32.0 °F - 31.5 °F 98% 30.00 in 4.0 mi Calm Calm - N/A   Clear
7:55 AM 32.0 °F - 32.0 °F 100% 30.01 in 4.0 mi Calm Calm - N/A   Clear
8:15 AM 32.2 °F - 32.0 °F 99% 30.01 in 5.0 mi Calm Calm - N/A   Clear
8:35 AM 33.1 °F - 32.5 °F 98% 30.02 in 4.0 mi Calm Calm - N/A   Clear
8:55 AM 35.2 °F - 34.7 °F 98% 30.02 in 4.0 mi Calm Calm - N/A   Clear
9:15 AM 39.6 °F - 37.9 °F 94% 30.02 in 10.0 mi Calm Calm - N/A   Clear
9:35 AM 42.1 °F - 38.1 °F 86% 30.02 in 10.0 mi Calm Calm - N/A   Clear
9:55 AM 43.9 °F - 39.9 °F 86% 30.01 in 10.0 mi Calm Calm - N/A   Clear
10:15 AM 45.9 °F - 42.4 °F 88% 30.01 in 10.0 mi Calm Calm - N/A   Clear
10:35 AM 48.7 °F - 44.2 °F 84% 30.00 in 10.0 mi Calm Calm - N/A   Clear
10:55 AM 51.8 °F - 45.0 °F 77% 29.99 in 10.0 mi Calm Calm - N/A   Clear
11:15 AM 55.6 °F - 46.0 °F 70% 29.98 in 10.0 mi East 4.6 mph - N/A   Clear
11:35 AM 58.6 °F - 45.9 °F 63% 29.97 in 10.0 mi East 3.5 mph - N/A   Clear
11:55 AM 61.9 °F - 45.3 °F 55% 29.96 in 10.0 mi Calm Calm - N/A   Clear
12:15 PM 64.9 °F - 43.3 °F 45% 29.96 in 10.0 mi SSE 5.8 mph - N/A   Clear
12:35 PM 67.1 °F - 43.9 °F 43% 29.94 in 10.0 mi SE 8.1 mph - N/A   Clear
12:55 PM 68.4 °F - 43.5 °F 41% 29.92 in 10.0 mi SSE 11.5 mph - N/A   Clear
1:15 PM 69.3 °F - 40.6 °F 35% 29.92 in 10.0 mi South 11.5 mph - N/A   Clear
1:35 PM 70.2 °F - 43.0 °F 37% 29.90 in 10.0 mi SSE 12.7 mph - N/A   Clear
1:55 PM 71.2 °F - 39.9 °F 32% 29.89 in 10.0 mi SSE 11.5 mph - N/A   Clear
2:15 PM 71.4 °F - 39.0 °F 31% 29.89 in 10.0 mi South 15.0 mph - N/A   Clear
2:35 PM 70.3 °F - 39.6 °F 33% 29.88 in 10.0 mi South 13.8 mph - N/A   Clear
3:15 PM 67.8 °F - 38.3 °F 34% 29.86 in 10.0 mi South 16.1 mph - N/A   Clear
3:35 PM 67.3 °F - 40.1 °F 37% 29.86 in 10.0 mi South 13.8 mph 18.4 mph N/A   Clear
3:55 PM 66.2 °F - 41.4 °F 40% 29.85 in 10.0 mi South 12.7 mph 18.4 mph N/A   Clear
4:15 PM 64.4 °F - 38.8 °F 39% 29.85 in 10.0 mi South 12.7 mph 21.9 mph N/A   Clear
4:35 PM 61.9 °F - 39.9 °F 44% 29.85 in 10.0 mi South 9.2 mph 17.3 mph N/A   Clear
4:55 PM 58.6 °F - 40.5 °F 51% 29.85 in 10.0 mi SSE 5.8 mph - N/A   Clear
5:15 PM 56.3 °F - 40.3 °F 55% 29.85 in 10.0 mi South 6.9 mph - N/A   Clear
5:35 PM 52.9 °F - 39.4 °F 60% 29.85 in 10.0 mi SE 6.9 mph - N/A   Clear
5:55 PM 49.5 °F - 37.9 °F 65% 29.85 in 10.0 mi SE 4.6 mph - N/A   Clear
6:15 PM 47.8 °F - 38.1 °F 69% 29.84 in 10.0 mi Calm Calm - N/A   Clear
6:35 PM 45.9 °F 44.6 °F 37.6 °F 73% 29.84 in 10.0 mi SSE 3.5 mph - N/A   Clear
6:55 PM 47.5 °F - 39.2 °F 73% 29.82 in 10.0 mi SSE 3.5 mph - N/A   Clear
7:15 PM 44.4 °F 40.5 °F 37.6 °F 77% 29.82 in 10.0 mi SE 6.9 mph - N/A   Clear
7:35 PM 45.3 °F 41.6 °F 39.2 °F 79% 29.81 in 10.0 mi SSE 6.9 mph - N/A   Clear
7:55 PM 48.2 °F - 41.0 °F 76% 29.81 in 10.0 mi SSE 5.8 mph - N/A   Clear
8:15 PM 47.5 °F - 40.8 °F 78% 29.80 in 10.0 mi SSE 5.8 mph - N/A   Clear
8:35 PM 52.0 °F - 43.3 °F 72% 29.80 in 10.0 mi SSE 9.2 mph - N/A   Clear
8:55 PM 54.3 °F - 44.6 °F 70% 29.80 in 10.0 mi South 12.7 mph - N/A   Clear
9:15 PM 54.5 °F - 45.0 °F 70% 29.79 in 10.0 mi South 11.5 mph - N/A   Clear
9:35 PM 54.1 °F - 45.5 °F 73% 29.78 in 10.0 mi South 11.5 mph - N/A   Clear
9:55 PM 52.7 °F - 45.5 °F 76% 29.77 in 10.0 mi South 8.1 mph - N/A   Clear
10:15 PM 51.4 °F - 45.0 °F 79% 29.77 in 10.0 mi SSE 6.9 mph - N/A   Clear
10:35 PM 48.7 °F - 43.7 °F 83% 29.76 in 10.0 mi SSE 5.8 mph - N/A   Clear
10:55 PM 47.5 °F - 43.3 °F 86% 29.75 in 10.0 mi SSE 6.9 mph - N/A   Clear
11:15 PM 47.1 °F - 43.0 °F 86% 29.74 in 10.0 mi SSE 6.9 mph - N/A   Clear
11:35 PM 46.2 °F 45.0 °F 42.3 °F 86% 29.72 in 10.0 mi East 3.5 mph - N/A   Clear
11:55 PM 42.3 °F 39.4 °F 40.1 °F 92% 29.71 in 7.0 mi SE 4.6 mph - N/A   Clear